| time (UTC) | temp C | wind direction | speed KPH | gust KPH | rain 1hr cm | rain 24hr cm | rain mn cm | humidity % | barometer mb |
| 20260510152110 | 18 | 65 | 0.0 | 0.0 | 0.00 | 0.00 | 0.00 | 95 | 1037.5 |
| 20260510151607 | 18 | 42 | 0.0 | 0.0 | 0.00 | 0.00 | 0.00 | 97 | 1037.6 |
| 20260510151106 | 18 | 48 | 0.0 | 0.0 | 0.00 | 0.00 | 0.00 | 97 | 1037.6 |
| 20260510150606 | 18 | 185 | 0.0 | 0.0 | 0.00 | 0.00 | 0.00 | 97 | 1037.8 |
| 20260510145558 | 18 | 40 | 0.0 | 0.0 | 0.00 | 0.00 | 0.00 | 99 | 1037.5 |
| 20260510145055 | 18 | 150 | 0.0 | 0.0 | 0.00 | 0.00 | 0.00 | 99 | 1037.5 |
| 20260510144551 | 18 | 56 | 0.0 | 0.0 | 0.00 | 0.00 | 0.00 | 99 | 1037.5 |
| 20260510144047 | 18 | 330 | 0.0 | 0.0 | 0.00 | 0.00 | 0.00 | 99 | 1037.7 |
| 20260510143543 | 18 | 334 | 0.0 | 0.0 | 0.00 | 0.00 | 0.00 | 99 | 1037.5 |
| 20260510143039 | 17 | 334 | 0.0 | 0.0 | 0.00 | 0.00 | 0.00 | 99 | 1037.5 |
| 20260510142536 | 17 | 334 | 0.0 | 0.0 | 0.00 | 0.00 | 0.00 | 99 | 1037.5 |
| 20260510142033 | 17 | 334 | 0.0 | 0.0 | 0.00 | 0.00 | 0.00 | 99 | 1037.5 |
| 20260510141530 | 17 | 334 | 0.0 | 0.0 | 0.00 | 0.00 | 0.00 | 99 | 1037.4 |
| 20260510141027 | 17 | 334 | 0.0 | 0.0 | 0.00 | 0.00 | 0.00 | 99 | 1037.5 |
| 20260510140523 | 17 | 334 | 0.0 | 0.0 | 0.00 | 0.00 | 0.00 | 99 | 1037.4 |
| 20260510140023 | 17 | 334 | 0.0 | 0.0 | 0.00 | 0.00 | 0.00 | 99 | 1037.8 |
| 20260510135518 | 17 | 334 | 0.0 | 0.0 | 0.00 | 0.00 | 0.00 | 99 | 1037.5 |
| 20260510135015 | 17 | 334 | 0.0 | 0.0 | 0.00 | 0.00 | 0.00 | 99 | 1037.5 |
| 20260510134513 | 17 | 334 | 0.0 | 0.0 | 0.00 | 0.00 | 0.00 | 99 | 1037.5 |
| 20260510134009 | 17 | 334 | 0.0 | 0.0 | 0.00 | 0.00 | 0.00 | 99 | 1037.5 |
| 20260510133505 | 17 | 334 | 0.0 | 0.0 | 0.00 | 0.00 | 0.00 | 99 | 1037.3 |
| 20260510133001 | 17 | 334 | 0.0 | 0.0 | 0.00 | 0.00 | 0.00 | 99 | 1037.2 |
| 20260510132458 | 17 | 334 | 0.0 | 0.0 | 0.00 | 0.00 | 0.00 | 99 | 1037.3 |
| 20260510131955 | 17 | 334 | 0.0 | 0.0 | 0.00 | 0.00 | 0.00 | 99 | 1037.1 |
| 20260510131453 | 17 | 334 | 0.0 | 0.0 | 0.00 | 0.00 | 0.00 | 99 | 1037.1 |
| 20260510130950 | 17 | 334 | 0.0 | 0.0 | 0.00 | 0.00 | 0.00 | 99 | 1037.1 |
| 20260510130446 | 17 | 334 | 0.0 | 0.0 | 0.00 | 0.00 | 0.00 | 99 | 1037.0 |
| 20260510125943 | 17 | 334 | 0.0 | 0.0 | 0.00 | 0.00 | 0.00 | 99 | 1037.0 |
| 20260510125439 | 17 | 334 | 0.0 | 0.0 | 0.00 | 0.00 | 0.00 | 99 | 1037.0 |
| 20260510124936 | 17 | 334 | 0.0 | 0.0 | 0.00 | 0.00 | 0.00 | 99 | 1037.0 |
| 20260510124432 | 17 | 334 | 0.0 | 0.0 | 0.00 | 0.00 | 0.00 | 99 | 1037.2 |
| 20260510123930 | 17 | 334 | 0.0 | 0.0 | 0.00 | 0.00 | 0.00 | 99 | 1037.0 |
| 20260510123425 | 17 | 334 | 0.0 | 0.0 | 0.00 | 0.00 | 0.00 | 99 | 1036.8 |
| 20260510122921 | 17 | 334 | 0.0 | 0.0 | 0.00 | 0.00 | 0.00 | 99 | 1036.8 |
| 20260510122417 | 17 | 334 | 0.0 | 0.0 | 0.00 | 0.00 | 0.00 | 99 | 1036.7 |
| 20260510121913 | 17 | 334 | 0.0 | 0.0 | 0.00 | 0.00 | 0.00 | 99 | 1036.6 |
| 20260510121410 | 17 | 334 | 0.0 | 0.0 | 0.00 | 0.00 | 0.00 | 99 | 1036.6 |
| 20260510120908 | 17 | 334 | 0.0 | 0.0 | 0.00 | 0.00 | 0.00 | 99 | 1036.6 |
| 20260510120405 | 17 | 334 | 0.0 | 0.0 | 0.00 | 0.00 | 0.00 | 99 | 1036.4 |
| 20260510115900 | 17 | 334 | 0.0 | 0.0 | 0.00 | 0.00 | 0.00 | 99 | 1036.1 |
| 20260510115352 | 17 | 335 | 0.0 | 0.0 | 0.00 | 0.00 | 0.00 | 99 | 1036.1 |
| 20260510114848 | 17 | 335 | 0.0 | 0.0 | 0.00 | 0.00 | 0.00 | 99 | 1036.4 |
| 20260510114346 | 17 | 336 | 0.0 | 0.0 | 0.00 | 0.00 | 0.00 | 99 | 1035.9 |
| 20260510113846 | 17 | 336 | 0.0 | 0.0 | 0.00 | 0.00 | 0.00 | 99 | 1035.9 |
| 20260510113342 | 17 | 337 | 0.0 | 0.0 | 0.00 | 0.00 | 0.00 | 99 | 1035.9 |
| 20260510112839 | 17 | 337 | 0.0 | 0.0 | 0.00 | 0.00 | 0.00 | 99 | 1035.7 |
| 20260510112336 | 17 | 337 | 0.0 | 0.0 | 0.00 | 0.00 | 0.00 | 99 | 1035.3 |
| 20260510111832 | 17 | 337 | 0.0 | 0.0 | 0.00 | 0.00 | 0.00 | 99 | 1035.4 |
| 20260510111329 | 17 | 337 | 0.0 | 0.0 | 0.00 | 0.00 | 0.00 | 99 | 1035.4 |
| 20260510110828 | 17 | 337 | 0.0 | 0.0 | 0.00 | 0.00 | 0.00 | 99 | 1035.2 |
| 20260510110326 | 17 | 337 | 0.0 | 0.0 | 0.00 | 0.00 | 0.00 | 99 | 1035.3 |
| 20260510105821 | 17 | 337 | 0.0 | 0.0 | 0.00 | 0.00 | 0.00 | 99 | 1035.1 |
| 20260510105316 | 17 | 337 | 0.0 | 0.0 | 0.00 | 0.00 | 0.00 | 99 | 1035.0 |
| 20260510104813 | 17 | 337 | 0.0 | 0.0 | 0.00 | 0.00 | 0.00 | 99 | 1035.0 |
| 20260510104310 | 17 | 337 | 0.0 | 0.0 | 0.00 | 0.00 | 0.00 | 99 | 1034.8 |
| 20260510103806 | 17 | 337 | 0.0 | 0.0 | 0.00 | 0.00 | 0.00 | 99 | 1034.7 |
| 20260510103303 | 17 | 337 | 0.0 | 0.0 | 0.00 | 0.00 | 0.00 | 99 | 1034.8 |
| 20260510102758 | 17 | 337 | 0.0 | 0.0 | 0.00 | 0.00 | 0.00 | 99 | 1034.7 |
| 20260510102254 | 17 | 336 | 0.0 | 0.0 | 0.00 | 0.00 | 0.00 | 99 | 1034.7 |
| 20260510101751 | 17 | 336 | 0.0 | 0.0 | 0.00 | 0.00 | 0.00 | 99 | 1034.5 |
| 20260510101250 | 17 | 336 | 0.0 | 0.0 | 0.00 | 0.00 | 0.00 | 99 | 1034.3 |
| 20260510100745 | 17 | 336 | 0.0 | 0.0 | 0.00 | 0.00 | 0.00 | 99 | 1034.3 |
| 20260510100243 | 17 | 336 | 0.0 | 0.0 | 0.00 | 0.00 | 0.00 | 99 | 1034.3 |
| 20260510095738 | 17 | 336 | 0.0 | 0.0 | 0.00 | 0.00 | 0.00 | 99 | 1034.2 |
| 20260510095234 | 17 | 336 | 0.0 | 0.0 | 0.00 | 0.00 | 0.00 | 99 | 1034.1 |
| 20260510094733 | 17 | 336 | 0.0 | 0.0 | 0.00 | 0.00 | 0.00 | 99 | 1034.2 |
| 20260510094228 | 17 | 336 | 0.0 | 0.0 | 0.00 | 0.00 | 0.00 | 99 | 1034.1 |
| 20260510093724 | 17 | 336 | 0.0 | 0.0 | 0.00 | 0.00 | 0.00 | 99 | 1033.8 |
| 20260510093222 | 17 | 335 | 0.0 | 0.0 | 0.00 | 0.00 | 0.00 | 99 | 1033.8 |
| 20260510092718 | 17 | 335 | 0.0 | 0.0 | 0.00 | 0.00 | 0.00 | 99 | 1034.0 |
| 20260510092214 | 17 | 335 | 0.0 | 0.0 | 0.00 | 0.00 | 0.00 | 99 | 1034.0 |
| 20260510091710 | 17 | 335 | 0.0 | 0.0 | 0.00 | 0.00 | 0.00 | 99 | 1033.7 |
| 20260510091206 | 17 | 335 | 0.0 | 0.0 | 0.00 | 0.00 | 0.00 | 99 | 1033.5 |
| 20260510090703 | 17 | 335 | 0.0 | 0.0 | 0.00 | 0.00 | 0.00 | 99 | 1033.6 |
| 20260510090200 | 17 | 335 | 0.0 | 0.0 | 0.00 | 0.00 | 0.00 | 99 | 1033.6 |
| 20260510085655 | 17 | 335 | 0.0 | 0.0 | 0.00 | 0.00 | 0.00 | 99 | 1033.6 |
| 20260510085150 | 17 | 335 | 0.0 | 0.0 | 0.00 | 0.00 | 0.00 | 99 | 1033.6 |
| 20260510084647 | 17 | 335 | 0.0 | 0.0 | 0.00 | 0.00 | 0.00 | 99 | 1033.3 |
| 20260510084143 | 17 | 335 | 0.0 | 0.0 | 0.00 | 0.00 | 0.00 | 99 | 1033.0 |
| 20260510083640 | 17 | 335 | 0.0 | 0.0 | 0.00 | 0.00 | 0.00 | 99 | 1033.3 |
| 20260510083137 | 17 | 334 | 0.0 | 0.0 | 0.00 | 0.00 | 0.00 | 99 | 1033.2 |
| 20260510082633 | 17 | 334 | 0.0 | 0.0 | 0.00 | 0.00 | 0.00 | 99 | 1033.2 |
| 20260510082129 | 17 | 334 | 0.0 | 0.0 | 0.00 | 0.00 | 0.00 | 99 | 1033.2 |
| 20260510081623 | 17 | 334 | 0.0 | 0.0 | 0.00 | 0.00 | 0.00 | 99 | 1033.2 |
| 20260510081119 | 17 | 334 | 0.0 | 0.0 | 0.00 | 0.00 | 0.00 | 99 | 1033.2 |
| 20260510080614 | 17 | 334 | 0.0 | 0.0 | 0.00 | 0.00 | 0.00 | 99 | 1033.3 |
| 20260510080110 | 17 | 334 | 0.0 | 0.0 | 0.00 | 0.00 | 0.00 | 99 | 1033.3 |
| 20260510075602 | 17 | 334 | 0.0 | 0.0 | 0.00 | 0.00 | 0.00 | 99 | 1032.9 |
| 20260510075058 | 17 | 334 | 0.0 | 0.0 | 0.00 | 0.00 | 0.00 | 99 | 1033.2 |
| 20260510074556 | 17 | 334 | 0.0 | 0.0 | 0.00 | 0.00 | 0.00 | 99 | 1033.1 |
| 20260510074051 | 17 | 334 | 0.0 | 0.0 | 0.00 | 0.00 | 0.00 | 99 | 1033.3 |
| 20260510073548 | 17 | 334 | 0.0 | 0.0 | 0.00 | 0.00 | 0.00 | 99 | 1033.1 |
| 20260510073045 | 17 | 333 | 0.0 | 0.0 | 0.00 | 0.00 | 0.00 | 99 | 1033.3 |
| 20260510072541 | 17 | 333 | 0.0 | 0.0 | 0.00 | 0.00 | 0.00 | 99 | 1033.2 |
| 20260510072037 | 17 | 333 | 0.0 | 0.0 | 0.00 | 0.00 | 0.00 | 99 | 1033.3 |
| 20260510071533 | 17 | 333 | 0.0 | 0.0 | 0.00 | 0.00 | 0.00 | 99 | 1033.2 |
| 20260510071032 | 17 | 333 | 0.0 | 0.0 | 0.00 | 0.00 | 0.00 | 99 | 1033.3 |
| 20260510070528 | 17 | 333 | 0.0 | 0.0 | 0.00 | 0.00 | 0.00 | 99 | 1033.2 |
| 20260510070025 | 17 | 333 | 0.0 | 0.0 | 0.00 | 0.00 | 0.00 | 99 | 1033.3 |
| 20260510065521 | 17 | 333 | 0.0 | 0.0 | 0.00 | 0.00 | 0.00 | 99 | 1033.3 |
| 20260510065017 | 17 | 333 | 0.0 | 0.0 | 0.00 | 0.00 | 0.00 | 99 | 1033.3 |
| 20260510064514 | 17 | 333 | 0.0 | 0.0 | 0.00 | 0.00 | 0.00 | 99 | 1033.2 |
| 20260510064011 | 17 | 333 | 0.0 | 0.0 | 0.00 | 0.00 | 0.00 | 99 | 1033.4 |
| 20260510063508 | 17 | 333 | 0.0 | 0.0 | 0.00 | 0.00 | 0.00 | 99 | 1033.4 |
| 20260510063005 | 17 | 333 | 0.0 | 0.0 | 0.00 | 0.00 | 0.00 | 99 | 1033.7 |
| 20260510062501 | 17 | 333 | 0.0 | 0.0 | 0.00 | 0.00 | 0.00 | 99 | 1033.8 |
| 20260510061955 | 17 | 333 | 0.0 | 0.0 | 0.00 | 0.00 | 0.00 | 99 | 1033.8 |
| 20260510061453 | 17 | 338 | 0.0 | 0.0 | 0.00 | 0.00 | 0.00 | 99 | 1033.9 |
| 20260510060949 | 17 | 340 | 0.0 | 0.0 | 0.00 | 0.00 | 0.00 | 99 | 1033.5 |
| 20260510060446 | 17 | 340 | 0.0 | 0.0 | 0.00 | 0.00 | 0.00 | 99 | 1033.6 |
| 20260510055942 | 17 | 340 | 0.0 | 0.0 | 0.00 | 0.00 | 0.00 | 99 | 1033.4 |
| 20260510055438 | 17 | 340 | 0.0 | 0.0 | 0.00 | 0.00 | 0.00 | 99 | 1033.7 |
| 20260510054937 | 17 | 340 | 0.0 | 0.0 | 0.00 | 0.00 | 0.00 | 99 | 1033.7 |
| 20260510054431 | 17 | 340 | 0.0 | 0.0 | 0.00 | 0.00 | 0.00 | 99 | 1033.6 |
| 20260510053927 | 17 | 340 | 0.0 | 0.0 | 0.00 | 0.00 | 0.00 | 99 | 1033.7 |
| 20260510053422 | 17 | 340 | 0.0 | 0.0 | 0.00 | 0.00 | 0.00 | 99 | 1033.8 |
| 20260510052919 | 17 | 340 | 0.0 | 0.0 | 0.00 | 0.00 | 0.00 | 99 | 1033.7 |
| 20260510052415 | 17 | 339 | 0.0 | 0.0 | 0.00 | 0.00 | 0.00 | 99 | 1033.9 |
| 20260510051911 | 17 | 339 | 0.0 | 0.0 | 0.00 | 0.00 | 0.00 | 99 | 1034.0 |
| 20260510051408 | 17 | 338 | 0.0 | 0.0 | 0.00 | 0.00 | 0.00 | 99 | 1033.8 |
| 20260510050904 | 17 | 347 | 0.0 | 0.0 | 0.00 | 0.00 | 0.00 | 99 | 1034.0 |
| 20260510050401 | 17 | 1 | 0.0 | 0.0 | 0.00 | 0.00 | 0.00 | 99 | 1033.8 |
| 20260510045858 | 17 | 1 | 0.0 | 0.0 | 0.00 | 0.08 | 0.08 | 99 | 1033.8 |
| 20260510045355 | 17 | 1 | 0.0 | 0.0 | 0.00 | 0.08 | 0.08 | 99 | 1033.7 |
| 20260510044852 | 17 | 1 | 0.0 | 0.0 | 0.00 | 0.08 | 0.08 | 99 | 1033.8 |
| 20260510044349 | 17 | 1 | 0.0 | 0.0 | 0.00 | 0.08 | 0.08 | 99 | 1033.9 |
| 20260510043845 | 17 | 1 | 0.0 | 0.0 | 0.00 | 0.08 | 0.08 | 99 | 1033.7 |
| 20260510043341 | 17 | 1 | 0.0 | 0.0 | 0.00 | 0.08 | 0.08 | 99 | 1033.7 |
| 20260510042839 | 17 | 1 | 0.0 | 0.0 | 0.00 | 0.08 | 0.08 | 99 | 1033.7 |
| 20260510042335 | 17 | 1 | 0.0 | 0.0 | 0.00 | 0.08 | 0.08 | 99 | 1033.8 |
| 20260510041831 | 17 | 1 | 0.0 | 0.0 | 0.00 | 0.08 | 0.08 | 99 | 1033.9 |
| 20260510041329 | 17 | 1 | 0.0 | 0.0 | 0.00 | 0.08 | 0.08 | 99 | 1033.9 |
| 20260510040826 | 17 | 1 | 0.0 | 0.0 | 0.00 | 0.08 | 0.08 | 99 | 1034.0 |
| 20260510040323 | 17 | 1 | 0.0 | 0.0 | 0.00 | 0.08 | 0.08 | 99 | 1033.9 |
| 20260510035818 | 17 | 1 | 0.0 | 0.0 | 0.00 | 0.08 | 0.08 | 99 | 1034.1 |
| 20260510035314 | 17 | 1 | 0.0 | 0.0 | 0.00 | 0.08 | 0.08 | 99 | 1033.9 |
| 20260510034810 | 17 | 1 | 0.0 | 0.0 | 0.00 | 0.08 | 0.08 | 99 | 1034.2 |
| 20260510034308 | 17 | 1 | 0.0 | 0.0 | 0.00 | 0.08 | 0.08 | 99 | 1034.1 |
| 20260510033804 | 17 | 1 | 0.0 | 0.0 | 0.00 | 0.08 | 0.08 | 99 | 1034.2 |
| 20260510033301 | 17 | 1 | 0.0 | 0.0 | 0.00 | 0.08 | 0.08 | 99 | 1034.0 |
| 20260510032757 | 18 | 1 | 0.0 | 0.0 | 0.00 | 0.08 | 0.08 | 99 | 1034.2 |
| 20260510032254 | 18 | 1 | 0.0 | 0.0 | 0.00 | 0.08 | 0.08 | 99 | 1034.4 |
| 20260510031750 | 18 | 1 | 0.0 | 0.0 | 0.00 | 0.08 | 0.08 | 99 | 1034.2 |
| 20260510031245 | 18 | 1 | 0.0 | 0.0 | 0.00 | 0.08 | 0.08 | 99 | 1034.1 |
| 20260510030744 | 18 | 1 | 0.0 | 0.0 | 0.00 | 0.08 | 0.08 | 99 | 1034.1 |
| 20260510030237 | 18 | 1 | 0.0 | 0.0 | 0.00 | 0.08 | 0.08 | 99 | 1033.9 |
| 20260510025734 | 18 | 1 | 0.0 | 0.0 | 0.00 | 0.08 | 0.08 | 98 | 1034.0 |
| 20260510025231 | 18 | 1 | 0.0 | 0.0 | 0.00 | 0.08 | 0.08 | 98 | 1034.0 |
| 20260510024722 | 18 | 1 | 0.0 | 0.0 | 0.00 | 0.08 | 0.08 | 98 | 1033.9 |
| 20260510024219 | 18 | 1 | 0.0 | 0.0 | 0.00 | 0.08 | 0.08 | 98 | 1034.1 |
| 20260510023714 | 18 | 1 | 0.0 | 0.0 | 0.00 | 0.08 | 0.08 | 98 | 1034.1 |
| 20260510023212 | 18 | 1 | 0.0 | 0.0 | 0.00 | 0.08 | 0.08 | 98 | 1034.0 |
| 20260510022707 | 18 | 1 | 0.0 | 0.0 | 0.00 | 0.08 | 0.08 | 98 | 1034.0 |
| 20260510022156 | 18 | 1 | 0.0 | 0.0 | 0.00 | 0.08 | 0.08 | 98 | 1033.8 |
| 20260510021652 | 18 | 1 | 0.0 | 0.0 | 0.00 | 0.08 | 0.08 | 98 | 1033.5 |
| 20260510021149 | 18 | 1 | 0.0 | 0.0 | 0.00 | 0.08 | 0.08 | 98 | 1033.5 |
| 20260510020644 | 18 | 1 | 0.0 | 0.0 | 0.00 | 0.08 | 0.08 | 98 | 1033.5 |
| 20260510020140 | 18 | 1 | 0.0 | 0.0 | 0.00 | 0.08 | 0.08 | 98 | 1033.5 |
| 20260510015636 | 18 | 1 | 0.0 | 0.0 | 0.00 | 0.08 | 0.08 | 97 | 1033.3 |
| 20260510015133 | 18 | 1 | 0.0 | 0.0 | 0.00 | 0.08 | 0.08 | 97 | 1033.4 |
| 20260510014628 | 18 | 1 | 0.0 | 0.0 | 0.00 | 0.08 | 0.08 | 97 | 1033.4 |
| 20260510014125 | 18 | 1 | 0.0 | 0.0 | 0.00 | 0.08 | 0.08 | 97 | 1033.1 |
| 20260510013619 | 18 | 1 | 0.0 | 0.0 | 0.00 | 0.08 | 0.08 | 97 | 1032.8 |
| 20260510013115 | 18 | 1 | 0.0 | 0.0 | 0.00 | 0.08 | 0.08 | 97 | 1032.8 |
| 20260510012614 | 18 | 1 | 0.0 | 0.0 | 0.00 | 0.08 | 0.08 | 96 | 1032.7 |
| 20260510012111 | 18 | 1 | 0.0 | 0.0 | 0.00 | 0.08 | 0.08 | 96 | 1032.5 |
| 20260510011610 | 18 | 1 | 0.0 | 0.0 | 0.00 | 0.08 | 0.08 | 96 | 1032.6 |
| 20260510011106 | 18 | 1 | 0.0 | 0.0 | 0.00 | 0.08 | 0.08 | 96 | 1032.6 |
| 20260510010603 | 19 | 1 | 0.0 | 0.0 | 0.00 | 0.08 | 0.08 | 95 | 1032.6 |
| 20260510010100 | 19 | 1 | 0.0 | 0.0 | 0.00 | 0.08 | 0.08 | 95 | 1032.4 |
| 20260510005555 | 19 | 1 | 0.0 | 0.0 | 0.00 | 0.08 | 0.08 | 95 | 1032.4 |
| 20260510005053 | 19 | 1 | 0.0 | 0.0 | 0.00 | 0.08 | 0.08 | 95 | 1032.4 |
| 20260510004551 | 19 | 1 | 0.0 | 0.0 | 0.00 | 0.08 | 0.08 | 95 | 1032.3 |
| 20260510004049 | 19 | 1 | 0.0 | 0.0 | 0.00 | 0.08 | 0.08 | 94 | 1032.2 |
| 20260510003545 | 19 | 1 | 0.0 | 0.0 | 0.00 | 0.08 | 0.08 | 94 | 1032.1 |
| 20260510003041 | 19 | 1 | 0.0 | 0.0 | 0.00 | 0.08 | 0.08 | 94 | 1032.2 |
| 20260510002536 | 19 | 1 | 0.0 | 0.0 | 0.00 | 0.08 | 0.08 | 93 | 1032.1 |
| 20260510002034 | 20 | 1 | 0.0 | 0.0 | 0.00 | 0.08 | 0.08 | 93 | 1032.1 |
| 20260510001531 | 20 | 1 | 0.0 | 0.0 | 0.00 | 0.08 | 0.08 | 93 | 1032.2 |
| 20260510001030 | 20 | 1 | 0.0 | 0.0 | 0.00 | 0.08 | 0.08 | 92 | 1032.2 |
| 20260510000530 | 20 | 2 | 0.0 | 0.0 | 0.00 | 0.08 | 0.08 | 92 | 1032.0 |
| 20260510000027 | 20 | 2 | 0.0 | 0.0 | 0.00 | 0.08 | 0.08 | 92 | 1032.0 |
| 20260509235524 | 20 | 2 | 0.0 | 0.0 | 0.00 | 0.08 | 0.08 | 92 | 1031.9 |
| 20260509235021 | 20 | 2 | 0.0 | 0.0 | 0.00 | 0.08 | 0.08 | 91 | 1031.8 |
| 20260509234517 | 20 | 2 | 0.0 | 0.0 | 0.00 | 0.08 | 0.08 | 91 | 1031.7 |
| 20260509234016 | 20 | 2 | 0.0 | 0.0 | 0.00 | 0.08 | 0.08 | 90 | 1031.6 |
| 20260509233513 | 20 | 2 | 0.0 | 0.0 | 0.00 | 0.08 | 0.08 | 90 | 1031.7 |
| 20260509233010 | 20 | 2 | 0.0 | 0.0 | 0.00 | 0.08 | 0.08 | 90 | 1031.5 |
| 20260509232507 | 20 | 2 | 0.0 | 0.0 | 0.00 | 0.08 | 0.08 | 90 | 1031.3 |
| 20260509232003 | 20 | 2 | 0.0 | 0.0 | 0.00 | 0.08 | 0.08 | 89 | 1031.6 |
| 20260509231459 | 20 | 2 | 0.0 | 0.0 | 0.00 | 0.08 | 0.08 | 88 | 1031.3 |
| 20260509230957 | 20 | 2 | 0.0 | 0.0 | 0.00 | 0.08 | 0.08 | 88 | 1031.4 |
| 20260509230454 | 20 | 2 | 0.0 | 0.0 | 0.00 | 0.08 | 0.08 | 88 | 1031.4 |
| 20260509225950 | 21 | 2 | 0.0 | 0.0 | 0.00 | 0.08 | 0.08 | 88 | 1031.4 |
| 20260509225446 | 21 | 2 | 0.0 | 0.0 | 0.00 | 0.08 | 0.08 | 87 | 1031.2 |
| 20260509224942 | 21 | 2 | 0.0 | 0.0 | 0.00 | 0.08 | 0.08 | 87 | 1031.1 |
| 20260509224438 | 21 | 2 | 0.0 | 0.0 | 0.00 | 0.08 | 0.08 | 86 | 1031.1 |
| 20260509223935 | 21 | 2 | 0.0 | 0.0 | 0.00 | 0.08 | 0.08 | 86 | 1031.1 |
| 20260509223431 | 21 | 2 | 0.0 | 0.0 | 0.00 | 0.08 | 0.08 | 85 | 1031.0 |
| 20260509222929 | 21 | 2 | 0.0 | 0.0 | 0.00 | 0.08 | 0.08 | 84 | 1031.1 |
| 20260509222424 | 21 | 2 | 0.0 | 0.0 | 0.00 | 0.08 | 0.08 | 84 | 1030.9 |
| 20260509221920 | 21 | 2 | 0.0 | 0.0 | 0.00 | 0.08 | 0.08 | 84 | 1031.1 |
| 20260509221417 | 21 | 2 | 0.0 | 0.0 | 0.00 | 0.08 | 0.08 | 84 | 1031.0 |
| 20260509220913 | 21 | 2 | 0.0 | 0.0 | 0.00 | 0.08 | 0.08 | 85 | 1030.7 |
| 20260509220409 | 21 | 2 | 0.0 | 0.0 | 0.00 | 0.08 | 0.08 | 84 | 1030.9 |
| 20260509215905 | 21 | 2 | 0.0 | 0.0 | 0.00 | 0.08 | 0.08 | 83 | 1031.2 |
| 20260509215401 | 21 | 2 | 0.0 | 0.0 | 0.00 | 0.08 | 0.08 | 84 | 1031.1 |
| 20260509214858 | 21 | 2 | 0.0 | 0.0 | 0.00 | 0.08 | 0.08 | 84 | 1030.7 |
| 20260509214355 | 22 | 2 | 0.0 | 0.0 | 0.00 | 0.08 | 0.08 | 83 | 1030.9 |
| 20260509213853 | 22 | 2 | 0.0 | 0.0 | 0.00 | 0.08 | 0.08 | 83 | 1031.0 |
| 20260509213347 | 22 | 2 | 0.0 | 0.0 | 0.00 | 0.08 | 0.08 | 83 | 1030.8 |
| 20260509212846 | 21 | 2 | 0.0 | 0.0 | 0.00 | 0.08 | 0.08 | 82 | 1031.0 |
| 20260509212343 | 21 | 1 | 0.0 | 0.0 | 0.00 | 0.08 | 0.08 | 83 | 1030.6 |
| 20260509211839 | 21 | 2 | 0.0 | 0.0 | 0.00 | 0.08 | 0.08 | 84 | 1030.8 |
| 20260509211335 | 22 | 2 | 0.0 | 0.0 | 0.00 | 0.08 | 0.08 | 85 | 1030.5 |
| 20260509210831 | 22 | 3 | 0.0 | 0.0 | 0.00 | 0.08 | 0.08 | 83 | 1030.9 |
| 20260509210329 | 21 | 1 | 0.0 | 0.0 | 0.00 | 0.08 | 0.08 | 83 | 1030.8 |
| 20260509205828 | 22 | 3 | 0.0 | 0.0 | 0.00 | 0.08 | 0.08 | 83 | 1030.9 |
| 20260509205323 | 22 | 4 | 0.0 | 0.0 | 0.00 | 0.08 | 0.08 | 83 | 1030.9 |
| 20260509204820 | 22 | 3 | 0.0 | 0.0 | 0.00 | 0.08 | 0.08 | 82 | 1030.5 |
| 20260509204316 | 22 | 5 | 0.0 | 0.0 | 0.00 | 0.08 | 0.08 | 81 | 1030.7 |
| 20260509203813 | 22 | 6 | 0.0 | 0.0 | 0.00 | 0.08 | 0.08 | 81 | 1030.9 |
| 20260509203310 | 22 | 6 | 0.0 | 0.0 | 0.00 | 0.08 | 0.08 | 81 | 1030.7 |
| 20260509202806 | 22 | 6 | 0.0 | 0.0 | 0.00 | 0.08 | 0.08 | 81 | 1031.1 |
| 20260509202306 | 22 | 4 | 0.0 | 0.0 | 0.00 | 0.08 | 0.08 | 80 | 1031.0 |
| 20260509201801 | 22 | 4 | 0.0 | 0.0 | 0.00 | 0.08 | 0.08 | 76 | 1030.9 |
| 20260509201259 | 23 | 30 | 0.0 | 0.0 | 0.00 | 0.08 | 0.08 | 76 | 1030.9 |
| 20260509200755 | 23 | 41 | 0.0 | 0.0 | 0.00 | 0.08 | 0.08 | 77 | 1030.7 |
| 20260509200250 | 23 | 11 | 0.0 | 0.0 | 0.00 | 0.08 | 0.08 | 74 | 1030.6 |
| 20260509195746 | 22 | 353 | 0.0 | 0.0 | 0.00 | 0.08 | 0.08 | 75 | 1030.8 |
| 20260509195242 | 22 | 16 | 0.0 | 0.0 | 0.00 | 0.08 | 0.08 | 79 | 1030.9 |
| 20260509194736 | 22 | 7 | 0.0 | 0.0 | 0.00 | 0.08 | 0.08 | 81 | 1030.9 |
| 20260509194233 | 23 | 336 | 0.0 | 0.0 | 0.00 | 0.08 | 0.08 | 78 | 1031.0 |
| 20260509193730 | 22 | 0 | 0.0 | 0.0 | 0.00 | 0.08 | 0.08 | 80 | 1031.4 |
| 20260509193229 | 22 | 345 | 0.0 | 0.0 | 0.00 | 0.08 | 0.08 | 82 | 1031.2 |
| 20260509192726 | 22 | 1 | 0.0 | 0.0 | 0.00 | 0.08 | 0.08 | 78 | 1031.1 |
| 20260509192221 | 23 | 9 | 0.0 | 0.0 | 0.00 | 0.08 | 0.08 | 81 | 1031.1 |
| 20260509191716 | 23 | 9 | 0.0 | 0.0 | 0.00 | 0.08 | 0.08 | 77 | 1031.2 |
| 20260509191213 | 23 | 347 | 0.0 | 0.0 | 0.00 | 0.08 | 0.08 | 75 | 1031.2 |
| 20260509190709 | 23 | 29 | 0.0 | 0.0 | 0.00 | 0.08 | 0.08 | 77 | 1031.4 |
| 20260509190207 | 24 | 3 | 0.0 | 0.0 | 0.00 | 0.08 | 0.08 | 74 | 1031.1 |
| 20260509185704 | 23 | 9 | 0.0 | 0.0 | 0.00 | 0.08 | 0.08 | 77 | 1031.4 |
| 20260509185200 | 22 | 15 | 0.0 | 0.0 | 0.00 | 0.08 | 0.08 | 82 | 1031.2 |
| 20260509184658 | 22 | 21 | 0.0 | 0.0 | 0.00 | 0.08 | 0.08 | 79 | 1031.4 |
| 20260509184155 | 22 | 7 | 0.0 | 0.0 | 0.00 | 0.08 | 0.08 | 81 | 1031.5 |
| 20260509183651 | 22 | 349 | 0.0 | 0.0 | 0.00 | 0.08 | 0.08 | 80 | 1031.4 |
| 20260509183146 | 22 | 348 | 0.0 | 0.0 | 0.00 | 0.08 | 0.08 | 81 | 1031.7 |
| 20260509182642 | 22 | 4 | 0.0 | 0.0 | 0.00 | 0.08 | 0.08 | 80 | 1031.8 |
| 20260509182140 | 21 | 351 | 0.0 | 0.0 | 0.00 | 0.08 | 0.08 | 81 | 1031.7 |
| 20260509181638 | 21 | 355 | 0.0 | 0.0 | 0.00 | 0.08 | 0.08 | 88 | 1031.8 |
| 20260509181135 | 21 | 353 | 0.0 | 0.0 | 0.00 | 0.08 | 0.08 | 86 | 1032.1 |
| 20260509180631 | 20 | 356 | 0.0 | 0.0 | 0.00 | 0.08 | 0.08 | 84 | 1032.1 |
| 20260509180128 | 20 | 351 | 0.0 | 1.6 | 0.00 | 0.08 | 0.08 | 89 | 1032.2 |
| 20260509175623 | 20 | 4 | 0.0 | 0.0 | 0.00 | 0.08 | 0.08 | 88 | 1032.4 |
| 20260509175121 | 20 | 5 | 0.0 | 0.0 | 0.00 | 0.08 | 0.08 | 89 | 1032.3 |
| 20260509174617 | 20 | 342 | 0.0 | 0.0 | 0.00 | 0.08 | 0.08 | 92 | 1032.3 |
| 20260509174112 | 20 | 9 | 0.0 | 0.0 | 0.00 | 0.08 | 0.08 | 90 | 1032.5 |
| 20260509173608 | 20 | 348 | 0.0 | 0.0 | 0.00 | 0.08 | 0.08 | 91 | 1032.5 |
| 20260509173104 | 19 | 4 | 0.0 | 0.0 | 0.00 | 0.08 | 0.08 | 92 | 1032.6 |
| 20260509172601 | 19 | 4 | 0.0 | 0.0 | 0.00 | 0.08 | 0.08 | 93 | 1032.6 |
| 20260509172057 | 19 | 9 | 0.0 | 0.0 | 0.00 | 0.08 | 0.08 | 92 | 1032.5 |
| 20260509171553 | 19 | 8 | 0.0 | 0.0 | 0.00 | 0.08 | 0.08 | 92 | 1032.5 |
| 20260509171049 | 19 | 16 | 0.0 | 0.0 | 0.00 | 0.08 | 0.08 | 92 | 1032.4 |
| 20260509170545 | 19 | 16 | 0.0 | 0.0 | 0.00 | 0.08 | 0.08 | 93 | 1032.4 |
| 20260509170041 | 19 | 350 | 0.0 | 0.0 | 0.00 | 0.08 | 0.08 | 94 | 1032.4 |
| 20260509165540 | 19 | 8 | 0.0 | 0.0 | 0.00 | 0.08 | 0.08 | 93 | 1032.4 |
| 20260509165035 | 19 | 26 | 0.0 | 0.0 | 0.00 | 0.08 | 0.08 | 93 | 1032.3 |
| 20260509164532 | 19 | 338 | 0.0 | 0.0 | 0.00 | 0.08 | 0.08 | 95 | 1032.5 |
| 20260509164027 | 18 | 359 | 0.0 | 0.0 | 0.00 | 0.08 | 0.08 | 99 | 1032.6 |
| 20260509163526 | 18 | 23 | 0.0 | 0.0 | 0.00 | 0.08 | 0.08 | 99 | 1032.4 |
| 20260509163020 | 18 | 350 | 0.0 | 0.0 | 0.00 | 0.08 | 0.08 | 99 | 1033.0 |
| 20260509162518 | 18 | 350 | 0.0 | 0.0 | 0.00 | 0.08 | 0.08 | 99 | 1032.8 |
| 20260509162014 | 18 | 351 | 0.0 | 0.0 | 0.00 | 0.08 | 0.08 | 99 | 1032.7 |
| 20260509161510 | 17 | 351 | 0.0 | 0.0 | 0.00 | 0.08 | 0.08 | 99 | 1032.7 |
| 20260509161005 | 17 | 351 | 0.0 | 0.0 | 0.00 | 0.08 | 0.08 | 99 | 1032.5 |
| 20260509160501 | 17 | 351 | 0.0 | 0.0 | 0.00 | 0.08 | 0.08 | 99 | 1032.9 |
| 20260509155956 | 17 | 355 | 0.0 | 0.0 | 0.00 | 0.08 | 0.08 | 99 | 1032.7 |
| 20260509155453 | 17 | 355 | 0.0 | 0.0 | 0.00 | 0.08 | 0.08 | 99 | 1032.7 |
| 20260509154949 | 17 | 354 | 0.0 | 0.0 | 0.00 | 0.08 | 0.08 | 99 | 1032.9 |
| 20260509154446 | 17 | 355 | 0.0 | 0.0 | 0.00 | 0.08 | 0.08 | 99 | 1032.7 |
| 20260509153943 | 17 | 354 | 0.0 | 0.0 | 0.00 | 0.08 | 0.08 | 99 | 1032.6 |
| 20260509153440 | 17 | 358 | 0.0 | 0.0 | 0.00 | 0.08 | 0.08 | 99 | 1032.8 |
| 20260509152937 | 17 | 350 | 0.0 | 0.0 | 0.00 | 0.08 | 0.08 | 99 | 1032.7 |
| 20260509152433 | 16 | 350 | 0.0 | 0.0 | 0.00 | 0.08 | 0.08 | 99 | 1032.8 |